This is the latest recevied weather packets stored in our database for station/object WC4PEM-9. If no packets are shown the sender has not sent any weather packets the latest 10 day(s).
| Time | Temp. | Humidity | Pressure | Rain* | Wind** | Luminosity | Snow |
|---|---|---|---|---|---|---|---|
| 1778004207 | 28.89° C | 52% | 1015.4 hPa | 0 mm | - | - | - |
| 1778003907 | 28.89° C | 53% | 1015.3 hPa | 0 mm | - | - | - |
| 1778003607 | 28.89° C | 51% | 1015.3 hPa | 0 mm | - | - | - |
| 1778003308 | 28.89° C | 52% | 1015.5 hPa | 0 mm | - | - | - |
| 1778003008 | 28.89° C | 51% | 1015.7 hPa | 0 mm | - | - | - |
| 1778002829 | 29.44° C | 51% | 1015.7 hPa | 0 mm | - | - | - |
| 1778002708 | 29.44° C | 51% | 1015.7 hPa | 0 mm | - | - | - |
| 1778002407 | 29.44° C | 50% | 1015.6 hPa | 0 mm | - | - | - |
| 1778002206 | 29.44° C | 52% | 1015.6 hPa | 0 mm | - | - | - |
| 1778002108 | 29.44° C | 52% | 1015.6 hPa | 0 mm | - | - | - |
| 1778001808 | 28.89° C | 52% | 1015.7 hPa | 0 mm | - | - | - |
| 1778001507 | 28.89° C | 52% | 1015.8 hPa | 0 mm | - | - | - |
| 1778001310 | 28.89° C | 54% | 1015.8 hPa | 0 mm | - | - | - |
| 1778001208 | 28.89° C | 54% | 1015.8 hPa | 0 mm | - | - | - |
| 1778001025 | 28.89° C | 54% | 1015.9 hPa | 0 mm | - | - | - |
| 1778000908 | 28.89° C | 54% | 1015.9 hPa | 0 mm | - | - | - |
| 1778000727 | 28.89° C | 52% | 1015.9 hPa | 0 mm | - | - | - |
| 1778000608 | 28.89° C | 52% | 1015.9 hPa | 0 mm | - | - | - |
| 1778000428 | 28.89° C | 53% | 1015.9 hPa | 0 mm | - | - | - |
| 1778000372 | 28.89° C | 53% | 1015.9 hPa | 0 mm | - | - | - |
| 1778000308 | 28.89° C | 53% | 1015.9 hPa | 0 mm | - | - | - |
| 1778000008 | 28.89° C | 52% | 1016 hPa | 0 mm | - | - | - |
| 1777999708 | 28.33° C | 54% | 1015.8 hPa | 0 mm | - | - | - |
| 1777999408 | 28.33° C | 54% | 1016 hPa | 0 mm | - | - | - |
| 1777999108 | 27.78° C | 57% | 1016 hPa | 0 mm | - | - | - |
* Rain latest hour (hover to see other rain measurements)
** Current wind speed in m/s (hover to see current wind gust speed)